LASARSAT

Last updated on Sun Dec 14 2025 00:03:50 GMT+0000 (Coordinated Universal Time)

1 62391U 24247Q 25346.93281372 .00034206 00000+0 10064-2 0 9992 2 62391 44.9763 219.5604 0002072 142.4633 217.6397 15.34549713 54597
UTC large
Height (km)
Speed (km/s)
/
Latitude / Longitude
Inclination (degrees)
Orbital Period (minutes)
Azimuth
Elevation
Range (km)
Doppler Factor

Next 0 passes for location: London (51.5072 / 0.1276)

Sorry there are no passes over London.